HST 1 20580U 90037B 25052.82459975 .00009772 00000-0 39296-3 0 9994 2 20580 28.4680 105.8281 0002115 237.8480 122.1909 15.23188622715062 ISS (ZARYA) 1 25544U 98067A 25052.76926544 .00020907 00000-0 38326-3 0 9990 2 25544 51.6353 158.6755 0005970 296.9031 63.1347 15.49238473497261 CXO 1 25867U 99040B 25055.72788827 .00001130 00000-0 00000+0 0 9990 2 25867 46.9206 135.6033 8583641 307.2110 0.5921 0.37801725 26678